Tracking 30516 objects as of 20-May-2025
HD Live streaming from Space Station
objects crossing your sky now

GLOBALSTAR M044

Track GLOBALSTAR M044 now!
10-day predictions
GLOBALSTAR M044 is classified as:


NORAD ID: 25678
Int'l Code: 1999-019C
Perigee: 1,726.7 km
Apogee: 1,737.2 km
Inclination: 52.0 °
Period: 121.0 minutes
Semi major axis: 8102 km
RCS: 2.4818 m2 (large)
Launch date: April 15, 1999
Source: Globalstar (GLOB)
Launch site: TYURATAM MISSILE AND SPACE COMPLEX (TTMTR)
Your satellite tracking list
Your tracking list is empty




NASA's NSSDC Master Catalog

Two Line Element Set (TLE):
1 25678U 99019C   25140.20480084 -.00000059  00000-0  34716-3 0  9993
2 25678  51.9953 101.2797 0006473 348.4538  24.4090 11.90250101167995
Source of the keplerian elements: AFSPC